Regional Weather Roundup
Issued by NWS

Home | Current Version | Previous Version | Graphics & Text | Print | Product List | Glossary Off
Versions: 1 2 3 4 5 6 7 8 9 10 11 12 13 14 15 16 17 18 19 20 21 22 23 24 25 26 27 28 29 30 31 32 33 34 35 36 37 38 39 40 41 42 43 44 45 46 47 48 49 50

000
ASUS43 KDMX 280407
RWRIA

WEATHER ROUNDUP FOR IOWA
NATIONAL WEATHER SERVICE DES MOINES IA
1100 PM CDT SUN JUL 27 2014

NOTE: "FAIR" INDICATES FEW OR NO CLOUDS BELOW 12,000 FEET WITH NO
SIGNIFICANT WEATHER AND/OR OBSTRUCTIONS TO VISIBILITY.

* - THESE STATIONS ARE NOT NWS STATIONS...THUS NOT UNDER NWS
QUALITY CONTROL.  THEY ALSO DO NOT REPORT WEATHER SUCH
AS PRECIPITATION OR FOG.

IAZ001>003-012>014-020>022-031>034-043>046-280500-
   NORTHWEST IOWA

CITY           SKY/WX    TMP DP  RH WIND       PRES   REMARKS
CARROLL *      CLEAR     63  57  82 NW9       30.15R
CHEROKEE *     CLEAR     61  59  94 N7        30.17S
DENISON *      CLEAR     63  57  82 NW5       30.16R
LE MARS *      PTCLDY    61  57  88 NW6       30.20R
ORANGE CITY *  CLOUDY    63  57  82 NW6       30.20R
SHELDON *      CLEAR     57  57 100 NW6       30.18R
SIOUX CITY     CLEAR     65  55  70 NW9       30.19R
SPENCER        CLEAR     60  56  86 NW9       30.17R
STORM LAKE *   CLEAR     61  61 100 NW9       30.18R
$$

IAZ055>058-069>071-079>083-090>094-280500-
   SOUTHWEST IOWA

CITY           SKY/WX    TMP DP  RH WIND       PRES   REMARKS
ATLANTIC *     CLEAR     61  57  88 N6        30.15S
AUDUBON *      CLEAR     64  61  88 NW5       30.17R
CLARINDA *     CLEAR     63  59  88 NE5       30.16R
COUNCIL BLFS *   N/A     64  61  88 N6        30.16R
CRESTON *      CLEAR     61  57  88 NW10      30.14R
HARLAN  *      CLEAR     61  57  88 W3        30.20R
LAMONI         CLEAR     65  56  72 NW8       30.11S
RED OAK *      CLEAR     66  57  72 N7        30.15S
SHENANDOAH *   MOCLDY    63  59  88 CALM      30.16R
$$

IAZ047>049-059>061-072>074-084-280500-
   CENTRAL IOWA

CITY           SKY/WX    TMP DP  RH WIND       PRES   REMARKS
AMES           CLEAR     65  58  78 NW9       30.09R
ANKENY *       CLEAR     68  59  73 NW13      30.09R
CHARITON *     CLEAR     64  57  77 NW8       30.10R
DES MOINES     CLEAR     68  57  68 NW12      30.09R
GRINNELL*      CLEAR     63  59  88 W7        30.06S
KNOXVILLE *    CLEAR     63  57  82 W9        30.07R
MARSHALLTOWN   PTCLDY    64  60  87 NW8       30.06R
PELLA *        CLEAR     66  59  77 NW9       30.08R
PERRY *          N/A     63  57  82 NW7       30.12R
$$

IAZ004>006-015-016-023>025-035-036-280500-
   NORTH CENTRAL IOWA

CITY           SKY/WX    TMP DP  RH WIND       PRES   REMARKS
ALGONA *       CLOUDY    64  61  88 NW8       30.14R
CLARION *      PTCLDY    64  61  88 NW9       30.10R
ESTHERVILLE    CLEAR     61  57  87 NW10      30.15R
FORT DODGE *   CLEAR     63  57  82 NW7       30.13R
MASON CITY     PTCLDY    63  59  87 NW10      30.10R
FOREST CITY *  PTCLDY    63  61  94 NE8       30.11R
IOWA FALLS *     N/A     64  59  82 NW10      30.09R
$$

IAZ007>011-017>019-026>030-037>042-050>054-066-280500-
   NORTHEAST IOWA

CITY           SKY/WX    TMP DP  RH WIND       PRES   REMARKS
CEDAR RAPIDS   CLEAR     66  60  81 NW14      30.00R
CHARLES CITY * MOCLDY    64  63  94 NW8       30.07R
CLINTON *      CLOUDY    66  61  82 NW8       29.99R
DECORAH *      CLOUDY    64  59  82 N14G21    30.04R
DUBUQUE        MOCLDY    67  60  78 N10       29.99R
MONTICELLO *   PTCLDY    64  61  88 NW6       29.99S
OELWEIN *      CLEAR     63  59  88 NW7       30.04R
WATERLOO       CLEAR     64  61  90 NW9       30.03R
$$

IAZ064-065-067-068-078-280500-
   EAST CENTRAL IOWA

CITY           SKY/WX    TMP DP  RH WIND       PRES   REMARKS
DAVENPORT      CLEAR     65  60  84 NW9       29.97S
IOWA CITY      CLEAR     69  61  75 NW15      30.01S
MT. PLEASANT * CLEAR     66  57  72 W10       30.01F
MUSCATINE *    CLEAR     68  61  77 NW9       29.99R
QUAD CITIES    PTCLDY    70  59  68 NW10      29.96R
$$

IAZ062-063-075>077-085>089-095>099-280500-
   SOUTHEAST IOWA

CITY           SKY/WX    TMP DP  RH WIND       PRES   REMARKS
BURLINGTON     CLEAR     67  59  75 NW8       30.00S
FAIRFIELD *    CLEAR     64  59  82 W9        30.04S
FORT MADISON * CLEAR     66  61  82 W9        30.02S
KEOKUK *       CLEAR     66  59  77 NW9G16    30.02S
OSKALOOSA *      N/A     64  59  82 NW9       30.05S
CENTERVILLE *  CLEAR     61  57  88 W7        30.10R
OTTUMWA        CLEAR     65  58  78 W9        30.05S
WASHINGTON *   CLEAR     64  61  88 W8        30.02S
$$

ABBREVIATIONS USED IN REMARKS
   TC - TEMPERATURES IN CELSIUS
  WCI - WIND CHILL INDEX
   HX - HEAT INDEX
  VSB - VISIBILITY
$$




USA.gov is the U.S. government's official web portal to all federal, state and local government web resources and services.